User: anonymous   Login
Location: Lake Runnemede Observatory
(43.4843°N, 72.3851°W)
Time: 00:51:58
(UTC-04:00)
Language:

SPOT 5 - Orbit

View from above orbital plane
View from above orbital plane
View from above satellite
View from above satellite

Ground track
Ground track

The orbit data is extracted from the following two-line orbital elements,

1 27421U 02021A   17204.53314115 +.00000096 +00000-0 +33064-4 0  9993
2 27421 098.4034 267.8626 0134497 216.9117 142.2768 14.51872335790946
Epoch (UTC): 23 July 2017 12:47:43
Eccentricity: 0.0134497
inclination: 98.4034°
perigee height: 624 km
apogee height: 815 km
right ascension of ascending node: 267.8626°
argument of perigee: 216.9117°
revolutions per day: 14.51872335
mean anomaly at epoch: 142.2768°
orbit number at epoch: 79094

The dashed part of the orbit path shows where the satellite is in the earth's shadow,  

DLR